Location: Choisy
(48.7685°N, 2.4187°E)
Time: 00:01:17
(UTC+00:00)

Envisat - Pass Details

Date: 27 February 2024
Orbit: 762 x 764 km, 98.3° (Epoch: 12 April)

Event Time Altitude Azimuth Distance (km) Brightness Sun altitude
Rises 05:33:03 0° 357° (N) 3,243 6.2 -11.4°
Reaches altitude 10° 05:37:48 10° 317° (NW) 2,309 5.1 -10.6°
Maximum altitude 05:38:27 10° 310° (NW) 2,292 5.0 -10.5°
Drops below altitude 10° 05:39:06 10° 302° (WNW) 2,307 5.0 -10.4°
Enters shadow 05:39:23 10° 299° (WNW) 2,324 5.0 -10.3°
